Tracking 19817 objects as of 19-Aug-2019
HD Live streaming from Space Station
objects crossing your sky now

FLOCK 3P 10

Track FLOCK 3P 10 now!
10-day predictions
FLOCK 3P 10 is classified as:


NORAD ID: 41974
Int'l Code: 2017-008AC
Perigee: 490.5 km
Apogee: 498.5 km
Inclination: 97.4 °
Period: 94.4 minutes
Semi major axis: 6865 km
RCS: Unknown
Launch date: February 15, 2017
Source: United States (US)
Launch site: SRIHARIKOTA (SRI)
aabbcc
Your satellite tracking list
Your tracking list is empty




NASA's NSSDC Master Catalog

Two Line Element Set (TLE):
1 41974U 17008AC  19231.18691761  .00001312  00000-0  53626-4 0  9999
2 41974  97.4035 297.8449 0005776 288.2145  71.8465 15.26137810139157
Source of the keplerian elements: AFSPC